| time (UTC) | temp F | wind direction | speed MPH | gust MPH | rain 1hr in | rain 24hr in | rain mn in | humidity % | barometer mb |
| 20260506081555 | 56 | 59 | 0.0 | 1.0 | 0.00 | 0.00 | 0.00 | 79 | 1017.6 |
| 20260506073049 | 56 | 59 | 0.0 | 1.0 | 0.00 | 0.00 | 0.00 | 79 | 1017.2 |
| 20260506071545 | 56 | 59 | 0.0 | 1.0 | 0.00 | 0.00 | 0.00 | 80 | 1017.2 |
| 20260506061540 | 57 | 291 | 0.0 | 2.0 | 0.00 | 0.00 | 0.00 | 81 | 1016.8 |
| 20260506044620 | 58 | 96 | 0.0 | 1.0 | 0.00 | 0.00 | 0.00 | 81 | 1016.4 |
| 20260506043036 | 58 | 96 | 0.0 | 1.0 | 0.00 | 0.00 | 0.00 | 81 | 1016.3 |
| 20260506041536 | 58 | 96 | 0.0 | 1.0 | 0.00 | 0.00 | 0.00 | 81 | 1016.1 |
| 20260506040035 | 58 | 45 | 0.0 | 1.0 | 0.00 | 0.00 | 0.00 | 82 | 1015.9 |
| 20260506034601 | 58 | 45 | 0.0 | 2.0 | 0.00 | 0.00 | 0.00 | 82 | 1015.7 |
| 20260506033036 | 59 | 45 | 1.0 | 2.0 | 0.00 | 0.00 | 0.00 | 81 | 1015.5 |
| 20260506031533 | 60 | 45 | 0.0 | 3.0 | 0.00 | 0.00 | 0.00 | 80 | 1015.4 |
| 20260506030032 | 61 | 82 | 0.0 | 1.0 | 0.00 | 0.00 | 0.00 | 78 | 1015.3 |
| 20260506024532 | 62 | 82 | 0.0 | 2.0 | 0.00 | 0.00 | 0.00 | 76 | 1015.2 |
| 20260506023040 | 62 | 67 | 1.0 | 3.0 | 0.00 | 0.00 | 0.00 | 75 | 1015.1 |
| 20260506021533 | 63 | 86 | 0.0 | 3.0 | 0.00 | 0.00 | 0.00 | 74 | 1015.1 |
| 20260506020031 | 63 | 77 | 0.0 | 4.0 | 0.00 | 0.00 | 0.00 | 74 | 1015.0 |
| 20260506014532 | 63 | 60 | 2.0 | 7.0 | 0.00 | 0.00 | 0.00 | 74 | 1015.0 |
| 20260506013030 | 64 | 142 | 2.0 | 6.0 | 0.00 | 0.00 | 0.00 | 74 | 1015.0 |
| 20260506011531 | 64 | 136 | 1.0 | 6.0 | 0.00 | 0.00 | 0.00 | 75 | 1015.2 |
| 20260506010029 | 64 | 134 | 1.0 | 5.0 | 0.00 | 0.00 | 0.00 | 75 | 1015.1 |
| 20260506004541 | 64 | 63 | 2.0 | 5.0 | 0.00 | 0.00 | 0.00 | 75 | 1015.1 |
| 20260506003041 | 64 | 66 | 1.0 | 7.0 | 0.00 | 0.00 | 0.00 | 74 | 1015.2 |
| 20260506001528 | 64 | 69 | 1.0 | 5.0 | 0.00 | 0.00 | 0.00 | 74 | 1015.2 |
| 20260506000027 | 65 | 84 | 0.0 | 4.0 | 0.00 | 0.00 | 0.00 | 73 | 1015.2 |
| 20260505234534 | 64 | 140 | 1.0 | 7.0 | 0.00 | 0.00 | 0.00 | 77 | 1015.4 |
| 20260505233022 | 63 | 172 | 3.0 | 6.0 | 0.00 | 0.00 | 0.00 | 77 | 1015.6 |
| 20260505231519 | 62 | 152 | 2.0 | 4.0 | 0.00 | 0.00 | 0.00 | 77 | 1015.7 |
| 20260505230017 | 61 | 207 | 0.0 | 4.0 | 0.00 | 0.00 | 0.00 | 78 | 1016.0 |
| 20260505224519 | 61 | 224 | 1.0 | 3.0 | 0.00 | 0.00 | 0.00 | 79 | 1016.0 |
| 20260505223016 | 61 | 167 | 1.0 | 2.0 | 0.00 | 0.00 | 0.00 | 78 | 1016.2 |
| 20260505221518 | 60 | 329 | 0.0 | 3.0 | 0.00 | 0.00 | 0.00 | 80 | 1016.3 |
| 20260505220023 | 60 | 343 | 2.0 | 5.0 | 0.00 | 0.00 | 0.00 | 78 | 1016.2 |
| 20260505214521 | 60 | 307 | 1.0 | 4.0 | 0.00 | 0.00 | 0.00 | 78 | 1016.3 |
| 20260505213012 | 60 | 334 | 0.0 | 3.0 | 0.00 | 0.00 | 0.00 | 79 | 1016.3 |
| 20260505211512 | 60 | 24 | 1.0 | 2.0 | 0.00 | 0.00 | 0.00 | 78 | 1016.5 |
| 20260505210010 | 60 | 65 | 1.0 | 2.0 | 0.00 | 0.00 | 0.00 | 79 | 1016.5 |
| 20260505204508 | 60 | 53 | 0.0 | 2.0 | 0.00 | 0.00 | 0.00 | 79 | 1016.6 |
| 20260505203008 | 59 | 162 | 2.0 | 3.0 | 0.00 | 0.00 | 0.00 | 80 | 1016.6 |
| 20260505201506 | 59 | 237 | 0.0 | 2.0 | 0.00 | 0.00 | 0.00 | 80 | 1016.8 |
| 20260505200005 | 59 | 230 | 2.0 | 4.0 | 0.00 | 0.00 | 0.00 | 80 | 1016.8 |
| 20260505194509 | 58 | 225 | 1.0 | 3.0 | 0.00 | 0.00 | 0.00 | 81 | 1016.8 |
| 20260505193010 | 58 | 224 | 1.0 | 4.0 | 0.00 | 0.00 | 0.00 | 80 | 1016.7 |
| 20260505191502 | 58 | 269 | 0.0 | 3.0 | 0.00 | 0.00 | 0.00 | 81 | 1016.8 |
| 20260505190001 | 58 | 26 | 1.0 | 3.0 | 0.00 | 0.00 | 0.00 | 81 | 1016.7 |
| 20260505184608 | 58 | 209 | 1.0 | 3.0 | 0.00 | 0.00 | 0.00 | 82 | 1016.7 |
| 20260505183059 | 58 | 131 | 0.0 | 2.0 | 0.00 | 0.00 | 0.00 | 82 | 1016.7 |
| 20260505181559 | 57 | 239 | 0.0 | 2.0 | 0.00 | 0.00 | 0.00 | 82 | 1016.6 |
| 20260505174610 | 56 | 172 | 1.0 | 3.0 | 0.00 | 0.00 | 0.00 | 82 | 1016.7 |
| 20260505173051 | 56 | 170 | 1.0 | 3.0 | 0.00 | 0.00 | 0.00 | 81 | 1016.6 |
| 20260505171549 | 55 | 134 | 1.0 | 5.0 | 0.00 | 0.00 | 0.00 | 79 | 1016.5 |
| 20260505170115 | 55 | 174 | 2.0 | 5.0 | 0.00 | 0.00 | 0.00 | 78 | 1016.4 |
| 20260505164549 | 54 | 148 | 2.0 | 5.0 | 0.00 | 0.00 | 0.00 | 75 | 1016.3 |
| 20260505163046 | 54 | 125 | 2.0 | 4.0 | 0.00 | 0.00 | 0.00 | 73 | 1016.2 |
| 20260505161554 | 54 | 171 | 3.0 | 5.0 | 0.00 | 0.00 | 0.00 | 72 | 1016.2 |
| 20260505153053 | 53 | 211 | 2.0 | 4.0 | 0.00 | 0.00 | 0.00 | 72 | 1016.1 |
| 20260505151545 | 53 | 205 | 2.0 | 4.0 | 0.00 | 0.00 | 0.00 | 73 | 1015.9 |
| 20260505124526 | 52 | 167 | 0.0 | 1.0 | 0.00 | 0.00 | 0.00 | 77 | 1014.9 |
| 20260505123039 | 52 | 167 | 0.0 | 1.0 | 0.00 | 0.00 | 0.00 | 77 | 1014.8 |
| 20260505121524 | 52 | 167 | 0.0 | 2.0 | 0.00 | 0.00 | 0.00 | 77 | 1014.8 |
| 20260505120028 | 52 | 167 | 0.0 | 1.0 | 0.00 | 0.00 | 0.00 | 77 | 1014.8 |
| 20260505114521 | 52 | 167 | 0.0 | 2.0 | 0.00 | 0.00 | 0.00 | 77 | 1014.7 |
| 20260505113032 | 52 | 167 | 0.0 | 0.0 | 0.00 | 0.00 | 0.00 | 76 | 1014.6 |
| 20260505111527 | 52 | 167 | 0.0 | 0.0 | 0.00 | 0.00 | 0.00 | 76 | 1014.6 |
| 20260505101515 | 51 | 167 | 0.0 | 1.0 | 0.00 | 0.00 | 0.00 | 77 | 1014.2 |
| 20260505100012 | 51 | 167 | 0.0 | 0.0 | 0.00 | 0.00 | 0.00 | 77 | 1014.1 |
| 20260505094511 | 51 | 167 | 0.0 | 1.0 | 0.00 | 0.00 | 0.00 | 77 | 1014.0 |
| 20260505093010 | 51 | 167 | 0.0 | 0.0 | 0.00 | 0.00 | 0.00 | 78 | 1014.0 |
| 20260505091506 | 52 | 53 | 0.0 | 2.0 | 0.00 | 0.00 | 0.00 | 79 | 1013.7 |
| 20260505090004 | 52 | 53 | 0.0 | 0.0 | 0.00 | 0.00 | 0.00 | 80 | 1013.6 |
| 20260505084501 | 52 | 53 | 0.0 | 0.0 | 0.00 | 0.00 | 0.00 | 80 | 1013.5 |
| 20260505083117 | 53 | 53 | 0.0 | 1.0 | 0.00 | 0.00 | 0.00 | 81 | 1013.4 |